When you browse on this site, cookies collect data to enhance your experience and personalize the content and advertising you see.
Visit our Privacy Policy to learn more. By continuing to use the site, you agree to this use of cookies and data.
EN

Hourly Weather London

Today, 10 July, Friday

Time Temperature Precipitation Wind Pressure Humidity
00:00 +14°C° 0 mm 4 mps 757 mmHg 90%
01:00 +14°C° 0 mm 4 mps 758 mmHg 90%
02:00 +13°C° 0 mm 4 mps 758 mmHg 89%
03:00 +13°C° 0 mm 4 mps 758 mmHg 89%
04:00 +13°C° 0 mm 4 mps 758 mmHg 87%
05:00 +13°C° 0 mm 4 mps 759 mmHg 85%
06:00 +13°C° 0 mm 4 mps 759 mmHg 83%
07:00 +14°C° 0 mm 5 mps 760 mmHg 77%
08:00 +15°C° 0 mm 5 mps 760 mmHg 71%
09:00 +16°C° 0 mm 5 mps 760 mmHg 65%
10:00 +16°C° 0 mm 5 mps 761 mmHg 61%
11:00 +17°C° 0 mm 5 mps 761 mmHg 56%
12:00 +19°C° 0 mm 5 mps 762 mmHg 52%
13:00 +19°C° 0 mm 5 mps 762 mmHg 52%
14:00 +19°C° 0 mm 5 mps 762 mmHg 53%
15:00 +19°C° 0 mm 5 mps 762 mmHg 53%
16:00 +19°C° 0.1 mm 5 mps 762 mmHg 56%
17:00 +19°C° 0.1 mm 5 mps 762 mmHg 58%
18:00 +17°C° 0.1 mm 5 mps 763 mmHg 61%
19:00 +17°C° 0 mm 4 mps 763 mmHg 64%
20:00 +15°C° 0 mm 4 mps 764 mmHg 67%
21:00 +14°C° 0 mm 4 mps 764 mmHg 70%
22:00 +13°C° 0 mm 4 mps 765 mmHg 71%
23:00 +12°C° 0 mm 4 mps 765 mmHg 72%

Tomorrow, 11 July, Saturday

Time Temperature Precipitation Wind Pressure Humidity
00:00 +12°C° 0 mm 4 mps 765 mmHg 73%
01:00 +11°C° 0 mm 3 mps 765 mmHg 76%
02:00 +11°C° 0 mm 3 mps 766 mmHg 79%
03:00 +11°C° 0 mm 3 mps 766 mmHg 82%
04:00 +11°C° 0 mm 3 mps 766 mmHg 80%
05:00 +12°C° 0 mm 4 mps 766 mmHg 79%
06:00 +12°C° 0 mm 4 mps 766 mmHg 77%
07:00 +14°C° 0 mm 4 mps 767 mmHg 72%
08:00 +15°C° 0 mm 4 mps 767 mmHg 66%
09:00 +17°C° 0 mm 4 mps 768 mmHg 61%
10:00 +18°C° 0 mm 4 mps 768 mmHg 58%
11:00 +19°C° 0 mm 4 mps 768 mmHg 55%
12:00 +20°C° 0 mm 4 mps 768 mmHg 52%
13:00 +20°C° 0 mm 4 mps 768 mmHg 52%
14:00 +20°C° 0 mm 4 mps 768 mmHg 52%
15:00 +20°C° 0 mm 4 mps 768 mmHg 52%
16:00 +20°C° 0 mm 4 mps 768 mmHg 54%
17:00 +20°C° 0 mm 3 mps 768 mmHg 55%
18:00 +19°C° 0 mm 3 mps 768 mmHg 57%
19:00 +18°C° 0 mm 3 mps 768 mmHg 62%
20:00 +17°C° 0 mm 2 mps 769 mmHg 68%
21:00 +15°C° 0 mm 2 mps 769 mmHg 73%
22:00 +15°C° 0 mm 2 mps 769 mmHg 75%
23:00 +14°C° 0 mm 2 mps 769 mmHg 78%

Day after tomorrow, 12 July, Sunday

Time Temperature Precipitation Wind Pressure Humidity
00:00 +14°C° 0 mm 2 mps 769 mmHg 80%
01:00 +13°C° 0 mm 2 mps 769 mmHg 82%
02:00 +13°C° 0 mm 2 mps 769 mmHg 83%
03:00 +12°C° 0 mm 2 mps 769 mmHg 84%
04:00 +13°C° 0 mm 2 mps 769 mmHg 83%
05:00 +13°C° 0 mm 1 mps 769 mmHg 81%
06:00 +14°C° 0 mm 1 mps 769 mmHg 80%
07:00 +15°C° 0 mm 1 mps 769 mmHg 73%
08:00 +18°C° 0 mm 1 mps 770 mmHg 67%
09:00 +20°C° 0 mm 1 mps 770 mmHg 61%
10:00 +21°C° 0 mm 1 mps 770 mmHg 56%
11:00 +22°C° 0 mm 1 mps 770 mmHg 51%
12:00 +23°C° 0 mm 1 mps 770 mmHg 46%
13:00 +23°C° 0 mm 1 mps 770 mmHg 45%
14:00 +23°C° 0 mm 1 mps 769 mmHg 45%
15:00 +23°C° 0 mm 1 mps 769 mmHg 44%
16:00 +23°C° 0 mm 2 mps 769 mmHg 48%
17:00 +21°C° 0 mm 2 mps 769 mmHg 51%
18:00 +21°C° 0 mm 2 mps 768 mmHg 55%
19:00 +19°C° 0 mm 2 mps 769 mmHg 59%
20:00 +18°C° 0 mm 2 mps 769 mmHg 64%
21:00 +16°C° 0 mm 2 mps 769 mmHg 68%
22:00 +16°C° 0 mm 2 mps 769 mmHg 68%
23:00 +16°C° 0 mm 1 mps 769 mmHg 68%

13 July, Monday

Time Temperature Precipitation Wind Pressure Humidity
00:00 +15°C° 0 mm 1 mps 769 mmHg 67%
01:00 +15°C° 0 mm 1 mps 769 mmHg 68%
02:00 +14°C° 0 mm 1 mps 768 mmHg 69%
03:00 +14°C° 0 mm 1 mps 768 mmHg 70%
04:00 +14°C° 0 mm 1 mps 768 mmHg 69%
05:00 +15°C° 0 mm 1 mps 768 mmHg 68%
06:00 +16°C° 0 mm 1 mps 767 mmHg 67%
07:00 +18°C° 0 mm 1 mps 767 mmHg 63%
08:00 +20°C° 0 mm 1 mps 767 mmHg 58%
09:00 +20°C° 0 mm 2 mps 767 mmHg 54%
10:00 +21°C° 0 mm 2 mps 767 mmHg 50%
11:00 +23°C° 0 mm 2 mps 767 mmHg 47%
12:00 +24°C° 0 mm 2 mps 766 mmHg 43%
13:00 +24°C° 0 mm 3 mps 766 mmHg 43%
14:00 +24°C° 0 mm 3 mps 766 mmHg 44%
15:00 +24°C° 0 mm 3 mps 765 mmHg 44%
16:00 +24°C° 0 mm 3 mps 765 mmHg 47%
17:00 +22°C° 0 mm 3 mps 765 mmHg 50%
18:00 +21°C° 0 mm 3 mps 765 mmHg 53%
19:00 +20°C° 0 mm 3 mps 764 mmHg 55%
20:00 +19°C° 0 mm 3 mps 764 mmHg 56%
21:00 +18°C° 0 mm 3 mps 764 mmHg 58%
22:00 +18°C° 0 mm 3 mps 764 mmHg 56%
23:00 +17°C° 0 mm 3 mps 764 mmHg 55%

14 July, Tuesday

Time Temperature Precipitation Wind Pressure Humidity
00:00 +17°C° 0 mm 3 mps 763 mmHg 53%
01:00 +17°C° 0 mm 3 mps 763 mmHg 56%
02:00 +17°C° 0 mm 2 mps 762 mmHg 58%
03:00 +16°C° 0 mm 2 mps 762 mmHg 61%
04:00 +16°C° 0.3 mm 3 mps 761 mmHg 65%
05:00 +16°C° 0.3 mm 3 mps 761 mmHg 69%
06:00 +16°C° 0.3 mm 3 mps 761 mmHg 73%
07:00 +16°C° 0.6 mm 3 mps 761 mmHg 78%
08:00 +14°C° 0.6 mm 3 mps 760 mmHg 82%
09:00 +14°C° 0.6 mm 4 mps 760 mmHg 86%
10:00 +17°C° 0.2 mm 4 mps 760 mmHg 83%
11:00 +18°C° 0.2 mm 4 mps 759 mmHg 81%
12:00 +19°C° 0.2 mm 4 mps 759 mmHg 78%
13:00 +19°C° 0.4 mm 4 mps 759 mmHg 78%
14:00 +19°C° 0.4 mm 4 mps 758 mmHg 77%
15:00 +19°C° 0.4 mm 4 mps 758 mmHg 77%
16:00 +19°C° 0.1 mm 4 mps 758 mmHg 77%
17:00 +18°C° 0.1 mm 4 mps 758 mmHg 77%
18:00 +18°C° 0.1 mm 4 mps 758 mmHg 78%
19:00 +17°C° 0 mm 4 mps 758 mmHg 79%
20:00 +15°C° 0 mm 4 mps 758 mmHg 80%
21:00 +15°C° 0 mm 4 mps 758 mmHg 82%
22:00 +15°C° 0 mm 4 mps 758 mmHg 82%
23:00 +14°C° 0 mm 4 mps 758 mmHg 81%

15 July, Wednesday

Time Temperature Precipitation Wind Pressure Humidity
00:00 +14°C° 0 mm 4 mps 757 mmHg 81%
01:00 +14°C° 0.2 mm 4 mps 757 mmHg 83%
02:00 +14°C° 0.2 mm 4 mps 756 mmHg 86%
03:00 +14°C° 0.2 mm 4 mps 756 mmHg 88%
04:00 +14°C° 0.3 mm 4 mps 756 mmHg 89%
05:00 +14°C° 0.3 mm 4 mps 756 mmHg 90%
06:00 +15°C° 0.3 mm 4 mps 755 mmHg 91%
07:00 +15°C° 0.1 mm 4 mps 756 mmHg 90%
08:00 +15°C° 0.1 mm 4 mps 756 mmHg 90%
09:00 +17°C° 0.1 mm 4 mps 756 mmHg 89%
10:00 +18°C° 0.1 mm 4 mps 756 mmHg 83%
11:00 +19°C° 0.1 mm 4 mps 756 mmHg 76%
12:00 +21°C° 0.1 mm 4 mps 757 mmHg 70%
13:00 +21°C° 0.1 mm 4 mps 757 mmHg 68%
14:00 +21°C° 0.1 mm 4 mps 757 mmHg 67%
15:00 +21°C° 0.1 mm 4 mps 757 mmHg 65%
16:00 +21°C° 0 mm 4 mps 758 mmHg 65%
17:00 +21°C° 0 mm 4 mps 758 mmHg 65%
18:00 +21°C° 0 mm 3 mps 758 mmHg 65%
19:00 +20°C° 0 mm 3 mps 759 mmHg 71%
20:00 +19°C° 0 mm 3 mps 759 mmHg 76%
21:00 +17°C° 0 mm 2 mps 760 mmHg 81%
22:00 +17°C° 0 mm 2 mps 760 mmHg 82%
23:00 +16°C° 0 mm 2 mps 761 mmHg 83%
Show more